Home > Weather > Silverstone > Past weeks

Flag for United Kingdom Past Weather in Silverstone, England, United Kingdom — Yesterday and Last 2 Weeks

Now
57 °F

Cool.


Feels Like: 56 °F
Forecast: 52 / 63 °F
Wind: 6 mph from Southwest

Location: Church Lawford

Current Time: Jun 29, 2016 at 10:50:00 PM

Latest Report: Jun 29, 2016 at 10:00 PM


Visibility: 11 mi

Pressure: 29.69 "Hg

Humidity: 92%

Dew Point: 54 °F

Location of SilverstoneLocation

Past Weather in Silverstone — Graph

°F

Silverstone Temperature Yesterday

Maximum temperature yesterday: 63 °F (at 2:00 PM)
Minimum temperature yesterday: 46 °F (at 5:00 AM)
Average temperature yesterday: 56 °F

High & Low Weather Summary for the Past Weeks

 TemperatureHumidityPressure
High70 °F (Jun 23, 2:00 PM)100% (Jun 23, 7:00 AM)30.23 "Hg (Jun 23, 7:00 AM)
Low46 °F (Jun 28, 5:00 AM)50% (Jun 27, 4:00 PM)29.32 "Hg (Jun 15, 4:00 AM)
Average59 °F85%29.90 "Hg
* Reported Jun 14 9:00 PM — Jun 29 9:00 PM, Silverstone, Weather by CustomWeather, © 2016

Note: Actual official high and low records may vary slightly from our data, if they occured in-between our weather recording intervals... More about our weather records

Advertising

Silverstone Weather History for the Previous 24 Hours

Scroll right to see more
 ConditionsComfort  
Time TempWeatherWind HumidityBarometerVisibility
9:00 PM
Wed, Jun 29
58 °FCool.7 mph89%29.67 "Hg10 mi
8:00 PM58 °FCool.8 mph90%29.65 "Hg19 mi
7:00 PM58 °FCool.9 mph93%29.65 "Hg11 mi
6:00 PM58 °FRain showers. Cloudy.9 mph90%29.64 "Hg3 mi
5:00 PM59 °FCool.7 mph89%29.64 "Hg7 mi
4:00 PM59 °FCool.10 mph92%29.64 "Hg11 mi
3:00 PM58 °FRain. Cloudy.9 mph95%29.65 "Hg3 mi
2:00 PM57 °FLight rain. Cloudy.10 mph95%29.65 "Hg9 mi
12:00 PM55 °FRain. Cloudy.10 mph94%29.68 "Hg6 mi
11:00 AM55 °FLight rain. Cloudy.9 mph93%29.71 "Hg9 mi
10:00 AM56 °FLots of rain. Cloudy.8 mph91%29.74 "Hg6 mi
8:00 AM53 °FCool.5 mph91%29.78 "Hg18 mi
7:00 AM51 °FCool.6 mph94%29.79 "Hg17 mi
6:00 AM50 °FCool.6 mph95%29.79 "Hg28 mi
5:00 AM49 °FCool.5 mph95%29.79 "Hg25 mi
4:00 AM50 °FCool.3 mph96%29.80 "Hg22 mi
3:00 AM50 °FCool.7 mph95%29.80 "Hg13 mi
2:00 AM52 °FFog.10 mph97%29.78 "Hg5 mi
1:00 AM53 °FFog.10 mph95%29.78 "Hg5 mi
12:00 AM54 °FFog.5 mph98%29.75 "Hg2 mi
11:00 PM
Tue, Jun 28
54 °FFog.1 mph95%29.72 "Hg4 mi
10:00 PM54 °FCool.2 mph95%29.72 "Hg11 mi
Weather by CustomWeather, © 2016

See weather overviewHow to use our weather pages